FW1312 Weather Reports


Display with metric or nautical units.
time (UTC)temp
F
wind
direction
speed
MPH
gust
MPH
rain 1hr
in
rain 24hr
in
rain mn
in
humidity
%
barometer
mb
20260831113033 75 215 1.0 3.0 0.00 0.00 0.00 75 1014.6
20260831111535 76 215 2.0 4.0 0.00 0.00 0.00 74 1014.5
20260831030005 83 149 4.0 7.0 0.00 0.00 0.00 51 1013.1
20260831024525 84 182 2.0 4.0 0.00 0.00 0.00 50 1012.7
20260831023008 85 176 2.0 5.0 0.00 0.00 0.00 49 1012.5
20260831021519 86 178 1.0 4.0 0.00 0.00 0.00 48 1012.3
20260831020016 87 164 2.0 4.0 0.00 0.00 0.00 48 1012.2
20260831014500 88 166 2.0 5.0 0.00 0.00 0.00 47 1012.1
20260831013018 89 162 3.0 7.0 0.00 0.00 0.00 47 1012.0
20260831011530 90 145 3.0 8.0 0.00 0.00 0.00 47 1011.9
20260831010034 91 134 4.0 8.0 0.00 0.00 0.00 46 1011.8
20260831004512 92 105 4.0 9.0 0.00 0.00 0.00 46 1011.7
20260831003002 93 111 4.0 8.0 0.00 0.00 0.00 46 1011.7
20260831001537 94 135 2.0 8.0 0.00 0.00 0.00 46 1011.7
20260831000006 94 130 6.0 11.0 0.00 0.00 0.00 46 1011.7
20260830234537 95 136 5.0 11.0 0.00 0.00 0.00 46 1011.8
20260830233103 96 162 4.0 15.0 0.00 0.00 0.00 47 1011.7
20260830231602 97 136 10.0 14.0 0.00 0.00 0.00 47 1011.7
20260830230032 97 177 2.0 12.0 0.00 0.00 0.00 48 1011.7
20260830224513 97 177 3.0 15.0 0.00 0.00 0.00 49 1011.7
20260830223015 97 114 3.0 12.0 0.00 0.00 0.00 50 1011.8
20260830221510 97 154 8.0 15.0 0.00 0.00 0.00 52 1011.8
20260830220016 97 102 5.0 10.0 0.00 0.00 0.00 53 1012.0
20260830214539 97 103 5.0 12.0 0.00 0.00 0.00 54 1012.2
20260830213026 96 132 8.0 16.0 0.00 0.00 0.00 55 1012.2
20260830211601 97 161 4.0 11.0 0.00 0.00 0.00 57 1012.4
20260830210003 96 163 3.0 13.0 0.00 0.00 0.00 58 1012.5
20260830204533 96 223 4.0 10.0 0.00 0.00 0.00 59 1012.7
20260830203048 96 143 7.0 18.0 0.00 0.00 0.00 61 1012.8
20260830201532 95 163 8.0 12.0 0.00 0.00 0.00 63 1013.1
20260830200049 95 122 7.0 13.0 0.00 0.00 0.00 64 1013.4
20260830194506 94 111 6.0 15.0 0.00 0.00 0.00 65 1013.7
20260830193037 94 159 5.0 11.0 0.00 0.00 0.00 67 1013.9
20260830191521 94 180 6.0 11.0 0.00 0.00 0.00 69 1014.1
20260830190020 93 134 2.0 12.0 0.00 0.00 0.00 70 1014.4
20260830184514 92 201 4.0 10.0 0.00 0.00 0.00 72 1014.6
20260830183013 92 202 5.0 14.0 0.00 0.00 0.00 73 1014.8
20260830181521 92 63 2.0 10.0 0.00 0.00 0.00 74 1015.2
20260830180048 91 209 4.0 14.0 0.00 0.00 0.00 76 1015.4
20260830174502 91 142 6.0 11.0 0.00 0.00 0.00 77 1015.5
20260830173058 90 123 5.0 12.0 0.00 0.00 0.00 78 1015.8
20260830171549 90 244 5.0 10.0 0.00 0.00 0.00 79 1016.0
20260830170043 89 242 4.0 11.0 0.00 0.00 0.00 80 1016.3
20260830164545 89 205 7.0 12.0 0.00 0.00 0.00 81 1016.5
20260830163013 88 150 3.0 9.0 0.00 0.00 0.00 82 1016.5
20260830161529 87 227 4.0 17.0 0.00 0.00 0.00 83 1016.4
20260830160037 86 225 3.0 14.0 0.00 0.00 0.00 83 1016.4
20260830154547 85 273 6.0 12.0 0.00 0.00 0.00 83 1016.6
20260830153017 84 236 5.0 13.0 0.00 0.00 0.00 83 1016.6
20260830151502 83 219 8.0 13.0 0.00 0.00 0.00 83 1016.4
20260830150038 83 225 4.0 12.0 0.00 0.00 0.00 83 1016.3
20260830144507 81 235 4.0 14.0 0.00 0.00 0.00 83 1016.4
20260830143055 80 231 5.0 18.0 0.00 0.00 0.00 82 1016.3
20260830141541 80 198 6.0 12.0 0.00 0.00 0.00 82 1016.3
20260830140003 79 210 6.0 14.0 0.00 0.00 0.00 81 1016.4
20260830134551 78 221 5.0 10.0 0.00 0.00 0.00 81 1016.4
20260830133021 77 235 1.0 6.0 0.00 0.00 0.00 80 1016.3